Time,TemperatureF,DewpointF,PressureIn,WindDirection,WindDirectionDegrees,WindSpeedMPH,WindSpeedGustMPH,Humidity,HourlyPrecipIn,Conditions,Clouds,dailyrainin,SoftwareType,DateUTC
2013-04-20 00:03:00,46.0,32.0,30.08,WSW,254,0.0,-999.0,59,-99.99,,,-99.99,,2013-04-20 04:03:00,
2013-04-20 00:12:00,46.0,32.0,30.08,WSW,254,0.0,-999.0,59,-99.99,,,-99.99,,2013-04-20 04:12:00,
2013-04-20 00:23:00,46.0,32.0,30.09,WSW,243,0.0,-999.0,59,-99.99,,,-99.99,,2013-04-20 04:23:00,
2013-04-20 00:33:00,46.0,32.0,30.09,WSW,243,0.0,-999.0,58,-99.99,,,-99.99,,2013-04-20 04:33:00,
2013-04-20 00:42:00,46.0,32.0,30.09,WSW,243,0.0,-999.0,58,-99.99,,,-99.99,,2013-04-20 04:42:00,
2013-04-20 00:53:00,46.0,32.0,30.10,WSW,243,0.0,-999.0,59,-99.99,,,-99.99,,2013-04-20 04:53:00,
2013-04-20 01:02:00,45.0,32.0,30.11,WSW,257,0.0,-999.0,60,-99.99,,,-99.99,,2013-04-20 05:02:00,
2013-04-20 01:12:00,45.0,32.0,30.11,WSW,257,0.0,-999.0,60,-99.99,,,-99.99,,2013-04-20 05:12:00,
2013-04-20 01:22:00,45.0,32.0,30.11,West,261,0.0,-999.0,61,-99.99,,,-99.99,,2013-04-20 05:22:00,
2013-04-20 01:32:00,45.0,33.0,30.12,West,261,0.0,-999.0,63,-99.99,,,-99.99,,2013-04-20 05:32:00,
2013-04-20 01:43:00,45.0,33.0,30.12,West,261,0.0,-999.0,63,-99.99,,,-99.99,,2013-04-20 05:43:00,
2013-04-20 01:52:00,44.0,32.0,30.12,West,259,0.0,-999.0,63,-99.99,,,-99.99,,2013-04-20 05:52:00,
2013-04-20 02:02:00,44.0,32.0,30.12,West,259,0.0,-999.0,63,-99.99,,,-99.99,,2013-04-20 06:02:00,
2013-04-20 02:12:00,44.0,32.0,30.12,West,259,0.0,-999.0,63,-99.99,,,-99.99,,2013-04-20 06:12:00,
2013-04-20 02:21:00,44.0,32.0,30.13,West,259,0.0,-999.0,63,-99.99,,,-99.99,,2013-04-20 06:21:00,
2013-04-20 02:32:00,43.0,31.0,30.14,West,259,0.0,-999.0,63,-99.99,,,-99.99,,2013-04-20 06:32:00,
2013-04-20 02:42:00,43.0,31.0,30.14,West,259,0.0,-999.0,63,-99.99,,,-99.99,,2013-04-20 06:42:00,
2013-04-20 02:52:00,43.0,32.0,30.11,West,260,0.0,-999.0,64,-99.99,,,-99.99,,2013-04-20 06:52:00,
2013-04-20 03:01:00,42.0,31.0,30.11,West,260,0.0,-999.0,66,-99.99,,,-99.99,,2013-04-20 07:01:00,
2013-04-20 03:11:00,42.0,31.0,30.11,West,260,0.0,-999.0,66,-99.99,,,-99.99,,2013-04-20 07:11:00,
2013-04-20 03:21:00,42.0,32.0,30.11,West,260,0.0,-999.0,67,-99.99,,,-99.99,,2013-04-20 07:21:00,
2013-04-20 03:32:00,41.0,31.0,30.11,West,260,0.0,-999.0,67,-99.99,,,-99.99,,2013-04-20 07:32:00,
2013-04-20 03:42:00,41.0,31.0,30.12,West,260,0.0,-999.0,68,-99.99,,,-99.99,,2013-04-20 07:42:00,
2013-04-20 03:52:00,41.0,31.0,30.12,West,260,0.0,-999.0,68,-99.99,,,-99.99,,2013-04-20 07:52:00,
2013-04-20 04:02:00,40.0,31.0,30.12,West,260,0.0,-999.0,69,-99.99,,,-99.99,,2013-04-20 08:02:00,
2013-04-20 04:11:00,40.0,31.0,30.12,West,260,0.0,-999.0,69,-99.99,,,-99.99,,2013-04-20 08:11:00,
2013-04-20 04:21:00,39.0,29.0,30.12,West,260,0.0,-999.0,67,-99.99,,,-99.99,,2013-04-20 08:21:00,
2013-04-20 04:32:00,39.0,28.0,30.13,West,260,0.0,-999.0,65,-99.99,,,-99.99,,2013-04-20 08:32:00,
2013-04-20 04:42:00,39.0,28.0,30.13,West,260,0.0,-999.0,65,-99.99,,,-99.99,,2013-04-20 08:42:00,
2013-04-20 04:52:00,39.0,28.0,30.13,West,260,0.0,-999.0,64,-99.99,,,-99.99,,2013-04-20 08:52:00,
2013-04-20 05:01:00,39.0,28.0,30.13,West,260,0.0,-999.0,65,-99.99,,,-99.99,,2013-04-20 09:01:00,
2013-04-20 05:12:00,39.0,32.0,30.14,West,260,0.0,-999.0,76,-99.99,,,-99.99,,2013-04-20 09:12:00,
2013-04-20 05:21:00,39.0,32.0,30.14,West,260,0.0,-999.0,76,-99.99,,,-99.99,,2013-04-20 09:21:00,
2013-04-20 05:33:00,38.0,32.0,30.14,West,260,0.0,-999.0,78,-99.99,,,-99.99,,2013-04-20 09:33:00,
2013-04-20 05:43:00,38.0,33.0,30.15,West,260,0.0,-999.0,82,-99.99,,,-99.99,,2013-04-20 09:43:00,
2013-04-20 05:53:00,38.0,33.0,30.15,West,260,0.0,-999.0,82,-99.99,,,-99.99,,2013-04-20 09:53:00,
2013-04-20 06:03:00,37.0,33.0,30.15,West,260,0.0,-999.0,84,-99.99,,,-99.99,,2013-04-20 10:03:00,
2013-04-20 06:13:00,37.0,33.0,30.15,West,260,0.0,-999.0,84,-99.99,,,-99.99,,2013-04-20 10:13:00,
2013-04-20 06:23:00,37.0,33.0,30.15,West,260,0.0,-999.0,85,-99.99,,,-99.99,,2013-04-20 10:23:00,
2013-04-20 06:33:00,37.0,33.0,30.16,West,260,0.0,-999.0,86,-99.99,,,-99.99,,2013-04-20 10:33:00,
2013-04-20 06:42:00,36.0,32.0,30.16,West,260,0.0,-999.0,86,-99.99,,,-99.99,,2013-04-20 10:42:00,
2013-04-20 06:53:00,36.0,32.0,30.16,West,260,0.0,-999.0,86,-99.99,,,-99.99,,2013-04-20 10:53:00,
2013-04-20 07:02:00,36.0,32.0,30.16,West,260,0.0,-999.0,86,-99.99,,,-99.99,,2013-04-20 11:02:00,
2013-04-20 07:12:00,36.0,33.0,30.16,West,260,0.0,-999.0,87,-99.99,,,-99.99,,2013-04-20 11:12:00,
2013-04-20 07:23:00,36.0,33.0,30.16,West,260,0.0,-999.0,87,-99.99,,,-99.99,,2013-04-20 11:23:00,
2013-04-20 07:32:00,36.0,33.0,30.17,West,260,0.0,-999.0,87,-99.99,,,-99.99,,2013-04-20 11:32:00,
2013-04-20 07:42:00,36.0,33.0,30.17,West,260,0.0,-999.0,87,-99.99,,,-99.99,,2013-04-20 11:42:00,
2013-04-20 07:53:00,36.0,33.0,30.18,West,260,0.0,-999.0,87,-99.99,,,-99.99,,2013-04-20 11:53:00,
2013-04-20 08:02:00,36.0,33.0,30.19,West,260,0.0,-999.0,87,-99.99,,,-99.99,,2013-04-20 12:02:00,
2013-04-20 08:11:00,36.0,33.0,30.19,West,260,0.0,-999.0,87,-99.99,,,-99.99,,2013-04-20 12:11:00,
2013-04-20 08:22:00,37.0,33.0,30.19,West,260,0.0,-999.0,86,-99.99,,,-99.99,,2013-04-20 12:22:00,
2013-04-20 08:32:00,39.0,34.0,30.20,West,260,0.0,-999.0,82,-99.99,,,-99.99,,2013-04-20 12:32:00,
2013-04-20 08:42:00,39.0,34.0,30.20,West,260,0.0,-999.0,82,-99.99,,,-99.99,,2013-04-20 12:42:00,
2013-04-20 08:52:00,41.0,35.0,30.21,West,260,0.0,-999.0,78,-99.99,,,-99.99,,2013-04-20 12:52:00,
2013-04-20 09:02:00,43.0,36.0,30.21,West,260,0.0,-999.0,75,-99.99,,,-99.99,,2013-04-20 13:02:00,
2013-04-20 09:11:00,44.0,36.0,30.22,West,260,0.0,-999.0,72,-99.99,,,-99.99,,2013-04-20 13:11:00,
2013-04-20 09:21:00,44.0,36.0,30.22,West,260,0.0,-999.0,72,-99.99,,,-99.99,,2013-04-20 13:21:00,
2013-04-20 09:32:00,45.0,34.0,30.23,West,260,0.0,-999.0,64,-99.99,,,-99.99,,2013-04-20 13:32:00,
2013-04-20 09:42:00,47.0,33.0,30.23,West,260,0.0,-999.0,59,-99.99,,,-99.99,,2013-04-20 13:42:00,
2013-04-20 09:52:00,47.0,33.0,30.23,West,260,0.0,-999.0,59,-99.99,,,-99.99,,2013-04-20 13:52:00,
2013-04-20 10:02:00,50.0,33.0,30.23,West,260,0.0,-999.0,52,-99.99,,,-99.99,,2013-04-20 14:02:00,
2013-04-20 10:11:00,51.0,30.0,30.24,West,260,0.0,-999.0,44,-99.99,,,-99.99,,2013-04-20 14:11:00,
2013-04-20 10:21:00,51.0,30.0,30.24,West,260,0.0,-999.0,44,-99.99,,,-99.99,,2013-04-20 14:21:00,
2013-04-20 10:32:00,53.0,29.0,30.24,West,260,0.0,-999.0,40,-99.99,,,-99.99,,2013-04-20 14:32:00,
2013-04-20 10:42:00,53.0,29.0,30.24,West,260,0.0,-999.0,40,-99.99,,,-99.99,,2013-04-20 14:42:00,
2013-04-20 10:52:00,54.0,30.0,30.24,West,260,0.0,-999.0,40,-99.99,,,-99.99,,2013-04-20 14:52:00,
2013-04-20 11:01:00,54.0,29.0,30.25,West,259,0.0,-999.0,38,-99.99,,,-99.99,,2013-04-20 15:01:00,
2013-04-20 11:12:00,54.0,29.0,30.25,West,259,0.0,-999.0,38,-99.99,,,-99.99,,2013-04-20 15:12:00,
2013-04-20 11:21:00,54.0,28.0,30.25,WSW,257,0.0,-999.0,37,-99.99,,,-99.99,,2013-04-20 15:21:00,
2013-04-20 11:33:00,55.0,27.0,30.25,WSW,257,0.0,-999.0,34,-99.99,,,-99.99,,2013-04-20 15:33:00,
2013-04-20 11:43:00,55.0,26.0,30.25,WSW,247,0.0,-999.0,33,-99.99,,,-99.99,,2013-04-20 15:43:00,
2013-04-20 11:53:00,55.0,26.0,30.25,WSW,247,0.0,-999.0,33,-99.99,,,-99.99,,2013-04-20 15:53:00,
2013-04-20 12:03:00,55.0,29.0,30.25,WSW,247,0.0,-999.0,36,-99.99,,,-99.99,,2013-04-20 16:03:00,
2013-04-20 12:12:00,57.0,29.0,30.25,WSW,246,0.0,-999.0,34,-99.99,,,-99.99,,2013-04-20 16:12:00,
2013-04-20 12:23:00,57.0,29.0,30.25,WSW,246,0.0,-999.0,34,-99.99,,,-99.99,,2013-04-20 16:23:00,
2013-04-20 12:32:00,57.0,26.0,30.25,WSW,246,0.0,-999.0,30,-99.99,,,-99.99,,2013-04-20 16:32:00,
2013-04-20 12:42:00,57.0,27.0,30.24,WSW,246,0.0,-999.0,32,-99.99,,,-99.99,,2013-04-20 16:42:00,
2013-04-20 12:53:00,57.0,27.0,30.24,WSW,246,0.0,-999.0,32,-99.99,,,-99.99,,2013-04-20 16:53:00,
2013-04-20 13:02:00,58.0,29.0,30.24,WSW,246,0.0,-999.0,33,-99.99,,,-99.99,,2013-04-20 17:02:00,
2013-04-20 13:12:00,59.0,28.0,30.24,SE,132,0.0,-999.0,31,-99.99,,,-99.99,,2013-04-20 17:12:00,
2013-04-20 13:23:00,59.0,28.0,30.24,SE,132,0.0,-999.0,31,-99.99,,,-99.99,,2013-04-20 17:23:00,
2013-04-20 13:33:00,58.0,28.0,30.23,SE,133,0.0,-999.0,31,-99.99,,,-99.99,,2013-04-20 17:33:00,
2013-04-20 13:42:00,58.0,28.0,30.23,SE,133,0.0,-999.0,31,-99.99,,,-99.99,,2013-04-20 17:42:00,
2013-04-20 13:52:00,59.0,28.0,30.23,SE,133,0.0,-999.0,30,-99.99,,,-99.99,,2013-04-20 17:52:00,
2013-04-20 14:02:00,58.0,29.0,30.23,SE,126,0.0,-999.0,33,-99.99,,,-99.99,,2013-04-20 18:02:00,
2013-04-20 14:12:00,59.0,28.0,30.22,SE,126,0.0,-999.0,31,-99.99,,,-99.99,,2013-04-20 18:12:00,
2013-04-20 14:22:00,59.0,28.0,30.22,SE,126,0.0,-999.0,31,-99.99,,,-99.99,,2013-04-20 18:22:00,
2013-04-20 14:32:00,60.0,28.0,30.22,SE,126,0.0,-999.0,29,-99.99,,,-99.99,,2013-04-20 18:32:00,
2013-04-20 14:42:00,60.0,28.0,30.22,SE,126,0.0,-999.0,29,-99.99,,,-99.99,,2013-04-20 18:42:00,
2013-04-20 14:52:00,59.0,28.0,30.21,SE,126,0.0,-999.0,30,-99.99,,,-99.99,,2013-04-20 18:52:00,
2013-04-20 15:02:00,60.0,29.0,30.21,ESE,103,0.0,-999.0,31,-99.99,,,-99.99,,2013-04-20 19:02:00,
2013-04-20 15:11:00,60.0,28.0,30.21,SSW,192,0.0,-999.0,29,-99.99,,,-99.99,,2013-04-20 19:11:00,
2013-04-20 15:21:00,60.0,28.0,30.21,SSW,192,0.0,-999.0,29,-99.99,,,-99.99,,2013-04-20 19:21:00,
2013-04-20 15:32:00,61.0,26.0,30.21,SSW,194,0.0,-999.0,26,-99.99,,,-99.99,,2013-04-20 19:32:00,
2013-04-20 15:42:00,62.0,27.0,30.21,SSW,194,0.0,-999.0,26,-99.99,,,-99.99,,2013-04-20 19:42:00,
2013-04-20 15:52:00,62.0,27.0,30.21,SSW,194,0.0,-999.0,26,-99.99,,,-99.99,,2013-04-20 19:52:00,
2013-04-20 16:02:00,61.0,26.0,30.20,SSW,194,0.0,-999.0,26,-99.99,,,-99.99,,2013-04-20 20:02:00,
2013-04-20 16:12:00,61.0,26.0,30.20,SSW,194,0.0,-999.0,26,-99.99,,,-99.99,,2013-04-20 20:12:00,
2013-04-20 16:22:00,61.0,26.0,30.20,SSW,194,0.0,-999.0,26,-99.99,,,-99.99,,2013-04-20 20:22:00,
2013-04-20 16:32:00,61.0,26.0,30.20,SSW,194,0.0,-999.0,26,-99.99,,,-99.99,,2013-04-20 20:32:00,
2013-04-20 16:42:00,61.0,26.0,30.20,SSW,194,0.0,-999.0,26,-99.99,,,-99.99,,2013-04-20 20:42:00,
2013-04-20 16:52:00,62.0,27.0,30.20,SSW,194,0.0,-999.0,26,-99.99,,,-99.99,,2013-04-20 20:52:00,
2013-04-20 17:01:00,62.0,27.0,30.20,West,271,1.0,-999.0,26,-99.99,,,-99.99,,2013-04-20 21:01:00,
2013-04-20 17:12:00,62.0,25.0,30.19,West,271,0.0,-999.0,24,-99.99,,,-99.99,,2013-04-20 21:12:00,
2013-04-20 17:22:00,62.0,25.0,30.19,West,271,0.0,-999.0,24,-99.99,,,-99.99,,2013-04-20 21:22:00,
2013-04-20 17:33:00,62.0,27.0,30.19,West,268,0.0,-999.0,26,-99.99,,,-99.99,,2013-04-20 21:33:00,
2013-04-20 17:43:00,62.0,27.0,30.19,West,268,0.0,-999.0,26,-99.99,,,-99.99,,2013-04-20 21:43:00,
2013-04-20 17:53:00,63.0,26.0,30.20,SE,141,0.0,-999.0,24,-99.99,,,-99.99,,2013-04-20 21:53:00,
2013-04-20 18:03:00,63.0,26.0,30.20,SE,141,0.0,-999.0,24,-99.99,,,-99.99,,2013-04-20 22:03:00,
2013-04-20 18:12:00,63.0,26.0,30.20,SE,141,0.0,-999.0,24,-99.99,,,-99.99,,2013-04-20 22:12:00,
2013-04-20 18:22:00,63.0,26.0,30.20,SE,141,0.0,-999.0,24,-99.99,,,-99.99,,2013-04-20 22:22:00,
2013-04-20 18:32:00,62.0,26.0,30.21,SE,141,0.0,-999.0,25,-99.99,,,-99.99,,2013-04-20 22:32:00,
2013-04-20 18:42:00,62.0,26.0,30.21,SE,141,0.0,-999.0,25,-99.99,,,-99.99,,2013-04-20 22:42:00,
2013-04-20 18:53:00,62.0,28.0,30.21,SE,141,0.0,-999.0,27,-99.99,,,-99.99,,2013-04-20 22:53:00,
2013-04-20 19:02:00,62.0,28.0,30.20,SE,141,0.0,-999.0,27,-99.99,,,-99.99,,2013-04-20 23:02:00,
2013-04-20 19:11:00,61.0,25.0,30.20,SE,141,0.0,-999.0,25,-99.99,,,-99.99,,2013-04-20 23:11:00,
2013-04-20 19:22:00,61.0,25.0,30.20,SE,141,0.0,-999.0,25,-99.99,,,-99.99,,2013-04-20 23:22:00,
2013-04-20 19:32:00,60.0,24.0,30.20,SE,141,0.0,-999.0,25,-99.99,,,-99.99,,2013-04-20 23:32:00,
2013-04-20 19:42:00,60.0,24.0,30.20,SE,141,0.0,-999.0,25,-99.99,,,-99.99,,2013-04-20 23:42:00,
2013-04-20 19:53:00,59.0,26.0,30.20,SE,141,0.0,-999.0,28,-99.99,,,-99.99,,2013-04-20 23:53:00,
2013-04-20 20:01:00,58.0,25.0,30.21,SE,141,0.0,-999.0,28,-99.99,,,-99.99,,2013-04-21 00:01:00,
2013-04-20 20:12:00,58.0,25.0,30.21,SE,141,0.0,-999.0,28,-99.99,,,-99.99,,2013-04-21 00:12:00,
2013-04-20 20:22:00,57.0,25.0,30.21,SE,141,0.0,-999.0,29,-99.99,,,-99.99,,2013-04-21 00:22:00,
2013-04-20 20:32:00,57.0,25.0,30.22,SE,141,0.0,-999.0,29,-99.99,,,-99.99,,2013-04-21 00:32:00,
2013-04-20 20:42:00,57.0,25.0,30.22,SE,141,0.0,-999.0,29,-99.99,,,-99.99,,2013-04-21 00:42:00,
2013-04-20 20:52:00,56.0,25.0,30.22,SE,141,0.0,-999.0,30,-99.99,,,-99.99,,2013-04-21 00:52:00,
2013-04-20 21:01:00,56.0,24.0,30.23,SE,141,0.0,-999.0,29,-99.99,,,-99.99,,2013-04-21 01:01:00,
2013-04-20 21:12:00,56.0,24.0,30.23,SE,141,0.0,-999.0,29,-99.99,,,-99.99,,2013-04-21 01:12:00,
2013-04-20 21:21:00,56.0,26.0,30.24,SE,141,0.0,-999.0,31,-99.99,,,-99.99,,2013-04-21 01:21:00,
2013-04-20 21:32:00,55.0,27.0,30.25,SE,141,0.0,-999.0,34,-99.99,,,-99.99,,2013-04-21 01:32:00,
2013-04-20 21:42:00,55.0,27.0,30.25,SE,141,0.0,-999.0,34,-99.99,,,-99.99,,2013-04-21 01:42:00,
2013-04-20 21:52:00,54.0,28.0,30.25,SE,141,0.0,-999.0,37,-99.99,,,-99.99,,2013-04-21 01:52:00,
2013-04-20 22:02:00,53.0,31.0,30.26,SE,141,0.0,-999.0,42,-99.99,,,-99.99,,2013-04-21 02:02:00,
2013-04-20 22:11:00,53.0,31.0,30.26,SE,141,0.0,-999.0,42,-99.99,,,-99.99,,2013-04-21 02:11:00,
2013-04-20 22:22:00,52.0,32.0,30.27,SE,141,0.0,-999.0,46,-99.99,,,-99.99,,2013-04-21 02:22:00,
2013-04-20 22:32:00,51.0,33.0,30.27,SE,141,0.0,-999.0,49,-99.99,,,-99.99,,2013-04-21 02:32:00,
2013-04-20 22:42:00,51.0,33.0,30.27,SE,141,0.0,-999.0,49,-99.99,,,-99.99,,2013-04-21 02:42:00,
2013-04-20 22:52:00,51.0,32.0,30.27,SE,141,0.0,-999.0,48,-99.99,,,-99.99,,2013-04-21 02:52:00,
2013-04-20 23:01:00,50.0,32.0,30.28,SE,141,0.0,-999.0,50,-99.99,,,-99.99,,2013-04-21 03:01:00,
2013-04-20 23:11:00,50.0,32.0,30.28,SE,141,0.0,-999.0,50,-99.99,,,-99.99,,2013-04-21 03:11:00,
2013-04-20 23:21:00,49.0,32.0,30.27,SE,141,0.0,-999.0,52,-99.99,,,-99.99,,2013-04-21 03:21:00,
2013-04-20 23:33:00,49.0,31.0,30.28,SE,141,0.0,-999.0,50,-99.99,,,-99.99,,2013-04-21 03:33:00,
2013-04-20 23:42:00,49.0,31.0,30.28,SE,141,0.0,-999.0,50,-99.99,,,-99.99,,2013-04-21 03:42:00,
2013-04-20 23:52:00,49.0,31.0,30.28,SE,141,0.0,-999.0,50,-99.99,,,-99.99,,2013-04-21 03:52:00,